Regional Weather Roundup
Issued by NWS Green Bay, WI

Home | Current Version | Previous Version | Text Only | Print | Product List | Glossary On
Versions: 1 2 3 4 5 6 7 8 9 10 11 12 13 14 15 16 17 18 19 20 21 22 23 24 25 26 27 28 29 30 31 32 33 34 35 36 37 38 39 40 41 42 43 44 45 46 47 48 49 50
000
ASUS43 KGRB 210459
RWRGRB

NORTH-CENTRAL AND NORTHEAST WISCONSIN REGIONAL WEATHER ROUNDUP
NATIONAL WEATHER SERVICE GREEN BAY WI
1100 PM CST SAT DEC 20 2014

WIZ005-009-010>012-018-019-210600-
NORTH CENTRAL WISCONSIN

CITY           SKY/WX    TMP DP  RH WIND       PRES   REMARKS
IRONWOOD       CLOUDY    28  27  93 S5        30.07S
MANITOWISH WTR NOT AVBL
ARBOR VITAE    NOT AVBL
EAGLE RIVER    NOT AVBL
LAND O LAKES   NOT AVBL
RHINELANDER    CLOUDY    26  24  92 S5        30.12F
PHILLIPS       NOT AVBL
ANTIGO         NOT AVBL
TOMAHAWK       NOT AVBL
MERRILL        NOT AVBL
$$

WIZ013-073-210600-
NORTHEAST WISCONSIN

CITY           SKY/WX    TMP DP  RH WIND       PRES   REMARKS
IRON MOUNTAIN  CLOUDY    27  23  85 S5        30.15F
MARINETTE      CLOUDY    28  23  80 CALM      30.20S
$$

WIZ017-030-035>037-045-210600-
CENTRAL WISCONSIN

CITY           SKY/WX    TMP DP  RH WIND       PRES   REMARKS
MEDFORD        NOT AVBL
WAUSAU         CLOUDY    28  25  88 S6        30.14S
MOSINEE        NOT AVBL
MARSHFIELD     CLOUDY    29  26  89 S7        30.14S FOG
WISC RAPIDS    CLOUDY    29  25  85 SE5       30.17F
STEVENS POINT  NOT AVBL
WAUPACA        NOT AVBL
SHAWANO        NOT AVBL
CLINTONVILLE   NOT AVBL
$$

WIZ038-039-048-051-210600-
FOX VALLEY

CITY           SKY/WX    TMP DP  RH WIND       PRES   REMARKS
NWS GREEN BAY  CLOUDY    29  27  92 CALM      30.21F FOG
APPLETON       CLOUDY    27  27 100 VRB3      30.20F FOG
OSHKOSH        CLOUDY    29  26  89 S5        30.20F FOG
FOND DU LAC    CLOUDY    30  26  85 S6        30.20F
$$

WIZ022-050-052-210600-
EAST CENTRAL WISCONSIN

CITY           SKY/WX    TMP DP  RH WIND       PRES   REMARKS
STURGEON BAY   CLOUDY    28  25  86 CALM      30.22S
MANITOWOC      NOT AVBL
SHEBOYGAN      CLOUDY    30  25  81 S3        30.22S
$$

LMZ563-521-522-541>543-210600-
LAKESHORE

STATION/POSITION TIME  TEMP    WIND        PRES    VSBY  WAVE
                       AIR SEA DIR/SP/G                  HT/PER
                 (UTC) (F)     (DEG/KT/KT) (MB)    (MI)  (FT/S)
SHEBOYGAN LKSHOR 0400   31 34  220/  5/  5 1024.5F
KEWAUNEE LKSHORE 0400   28     280/  2/  3 1022.3F
ALGOMA MARINA    0400          340/  6/  6   N/A
NORTHPORT PIER   0400   30      CALM  /  3 1023.0F
SISTER BAY LKSHO 0400             CALM       N/A
CHAMBERS ISLAND  0400   28        CALM     1023.4F
MENOMINEE LKSHOR 0400   29     180/  2/  3 1023.4F
$$


USA.gov is the U.S. government's official web portal to all federal, state and local government web resources and services.